GW4222 Weather Reports


time (UTC)temp
C
wind
direction
speed
KPH
gust
KPH
rain 1hr
cm
rain 24hr
cm
rain mn
cm
humidity
%
barometer
mb
20260504081503 1 352 0.0 3.2 0.00 0.03 0.03 94 1007.6
20260504050007 -1 313 0.0 0.0 0.00 0.00 0.00 92 1008.1
20260504044513 -1 313 0.0 0.0 0.00 0.00 0.00 91 1008.3
20260504043012 -1 313 0.0 3.2 0.00 0.00 0.00 91 1008.6
20260504041513 -2 313 0.0 0.0 0.00 0.00 0.00 90 1008.7
20260504040019 -1 313 0.0 3.2 0.00 0.00 0.00 89 1008.6
20260504034509 -1 313 0.0 3.2 0.00 0.00 0.00 88 1008.5
20260504033011 -1 313 0.0 0.0 0.00 0.00 0.00 87 1008.5
20260504031508 -1 313 0.0 3.2 0.00 0.00 0.00 86 1008.5
20260504030011 0 313 0.0 3.2 0.00 0.00 0.00 86 1008.6
20260504024508 0 313 0.0 1.6 0.00 0.00 0.00 85 1008.6
20260504023011 0 313 0.0 3.2 0.00 0.00 0.00 84 1008.4
20260504021512 0 313 0.0 3.2 0.00 0.00 0.00 83 1008.5
20260504020025 0 313 0.0 3.2 0.00 0.00 0.00 82 1008.7
20260504014520 1 313 0.0 0.0 0.00 0.00 0.00 81 1008.7
20260504013013 1 313 0.0 1.6 0.00 0.00 0.00 78 1008.5
20260504011515 2 313 0.0 3.2 0.00 0.00 0.00 76 1008.4
20260504010018 2 313 0.0 0.0 0.00 0.00 0.00 73 1008.2
20260504004517 3 312 0.0 3.2 0.00 0.00 0.00 71 1008.0
20260504003019 -17 0.0 0.0 0.00 0.00 0.00 1007.9
20260504001511 5 312 0.0 3.2 0.00 0.00 0.00 65 1007.7
20260504000018 6 312 0.0 3.2 0.00 0.00 0.00 63 1007.7
20260503234503 6 312 0.0 3.2 0.00 0.00 0.00 61 1007.7
20260503233019 7 312 0.0 3.2 0.00 0.03 0.00 58 1007.5
20260503231508 8 352 1.6 6.4 0.00 0.08 0.00 52 1007.4
20260503230020 8 5 0.0 3.2 0.00 0.10 0.00 54 1007.5
20260503224503 8 228 1.6 14.5 0.00 0.10 0.00 47 1007.5
20260503223004 9 19 4.8 14.5 0.00 0.10 0.00 46 1007.4
20260503221503 9 5 3.2 11.3 0.00 0.10 0.00 45 1007.3
20260503220016 9 22 3.2 16.1 0.00 0.10 0.00 45 1007.3
20260503214534 9 38 4.8 9.7 0.00 0.10 0.00 46 1007.4
20260503213008 9 107 1.6 9.7 0.00 0.10 0.00 47 1007.3
20260503211508 9 287 3.2 11.3 0.00 0.10 0.00 46 1007.4
20260503210006 9 53 8.0 19.3 0.00 0.10 0.00 44 1007.3
20260503204501 8 36 1.6 14.5 0.00 0.10 0.00 48 1007.3
20260503203027 8 53 6.4 16.1 0.00 0.10 0.00 50 1007.3
20260503201517 8 18 3.2 14.5 0.00 0.13 0.00 51 1007.4
20260503200013 8 73 6.4 14.5 0.00 0.13 0.00 48 1007.5
20260503194511 9 360 4.8 24.1 0.00 0.13 0.00 48 1007.5
20260503193009 8 88 4.8 12.9 0.00 0.13 0.00 48 1007.7
20260503191513 8 30 1.6 12.9 0.00 0.13 0.00 48 1007.9
20260503190027 9 9 1.6 12.9 0.00 0.13 0.00 49 1007.8
20260503184520 8 31 6.4 19.3 0.00 0.13 0.00 46 1007.8
20260503183017 8 168 4.8 19.3 0.00 0.13 0.00 45 1007.8
20260503181514 8 338 9.7 19.3 0.00 0.13 0.00 44 1007.8
20260503180011 8 101 6.4 19.3 0.00 0.13 0.00 45 1007.6
20260503174506 8 74 3.2 19.3 0.00 0.13 0.00 46 1007.8
20260503173027 8 280 0.0 12.9 0.00 0.13 0.00 52 1007.9
20260503171522 8 250 3.2 12.9 0.00 0.13 0.00 49 1007.9